Location: Home
(42.5358°N, 72.7383°W)
Time: 18:58:35
(UTC-05:00)

Transit 4A - Pass Details

Date: 07 December 2021
Orbit: 863 x 981 km, 66.8° (Epoch: 23 January)

Event Time Altitude Azimuth Distance (km) Brightness Sun altitude
Rises 02:02:52 0° 334° (NNW) 3,608 - -54.7°
Reaches altitude 10° 02:05:43 10° 345° (NNW) 2,678 - -54.3°
Maximum altitude 02:11:13 31° 47° (NE) 1,620 - -53.3°
Drops below altitude 10° 02:16:48 10° 108° (ESE) 2,719 - -52.4°
Exits shadow 02:18:54 - 116° (ESE) 3,400 11.2 -52.0°
Sets 02:19:42 0° 118° (ESE) 3,670 11.4 -51.9°
